Regional Weather Roundup
Issued by NWS

Home | Current Version | Previous Version | Graphics & Text | Print | Product List | Glossary On
Versions: 1 2 3 4 5 6 7 8 9 10 11 12 13 14 15 16 17 18 19 20 21 22 23 24 25 26 27 28 29 30 31 32 33 34 35 36 37 38 39 40 41 42 43 44 45 46 47 48 49 50
858
ASUS43 KOAX 131802
RWRNE

WEATHER ROUNDUP FOR NEBRASKA
NATIONAL WEATHER SERVICE OMAHA NE
1200 PM CST SAT FEB 13 2016

NOTES: SATELLITE DATA IS BEING USED TO AUGMENT CLOUD COVER ABOVE
       12000 FEET.
       "FAIR" INDICATES FEW OR NO CLOUDS BELOW 12,000 FEET WITH NO
       SIGNIFICANT WEATHER AND/OR OBSTRUCTIONS TO VISIBILITY.

  * THESE STATIONS DO NOT REPORT WEATHER SUCH AS RAIN...SNOW OR FOG.

NEZ001>004-019>022-054>056-131900-
NEBRASKA PANHANDLE

CITY           SKY/WX    TMP DP  RH WIND       PRES   REMARKS
SCOTTSBLUFF    CLOUDY    39  32  76 SE5       30.00F
6HR MIN TEMP:  29; 6HR MAX TEMP:  39;

ALLIANCE       CLOUDY    34  30  85 S17       30.00F WCI  23
6HR MIN TEMP:  30; 6HR MAX TEMP:  34;

CHADRON        SUNNY     47  32  56 SW12      29.94F
6HR MIN TEMP:  31; 6HR MAX TEMP:  47;

KIMBALL        CLOUDY    41  39  95 SW5       30.02S
SIDNEY         CLOUDY    32  32 100 S14G22    30.03F WCI  22
6HR MIN TEMP:  29; 6HR MAX TEMP:  32;

$$

NEZ057>060-069>072-079>082-131900-
SOUTHWEST NEBRASKA

CITY           SKY/WX    TMP DP  RH WIND       PRES   REMARKS
NORTH PLATTE   CLOUDY    22  18  85 S16G26    30.19F WCI   8
6HR MIN TEMP:  21; 6HR MAX TEMP:  23;

IMPERIAL       CLOUDY    26  24  92 S16       30.13F WCI  14
6HR MIN TEMP:  25; 6HR MAX TEMP:  27;

LEXINGTON      CLOUDY    22  17  81 S18       30.26F WCI   7
MCCOOK         CLOUDY    23  19  85 S17G24    30.23F WCI   9
6HR MIN TEMP:  21; 6HR MAX TEMP:  23;

$$

NEZ005>010-023>029-035>040-094-131900-
NORTH CENTRAL NEBRASKA

CITY           SKY/WX    TMP DP  RH WIND       PRES   REMARKS
VALENTINE      CLOUDY    26  22  84 S17G28    30.12F WCI  13
6HR MIN TEMP:  22; 6HR MAX TEMP:  26;

AINSWORTH      CLOUDY    24  17  74 S21       30.16F WCI  10
BROKEN BOW     CLOUDY    21  17  84 S18G24    30.25F WCI   6
6HR MIN TEMP:  17; 6HR MAX TEMP:  21;

ORD            CLOUDY    20   8  60 S13       30.31F WCI   7
6HR MIN TEMP:  15; 6HR MAX TEMP:  20;

$$

NEZ041-046>049-061>064-073>077-083>087-131900-
SOUTH CENTRAL NEBRASKA

CITY           SKY/WX    TMP DP  RH WIND       PRES   REMARKS
GRAND ISLAND   CLOUDY    19  10  68 SE15      30.38F WCI   5
6HR MIN TEMP:  14; 6HR MAX TEMP:  19;

AURORA         CLOUDY    19   8  61 SE13      30.39F WCI   6
HASTINGS       CLOUDY    20   7  57 SE15      30.35F WCI   6
6HR MIN TEMP:  15; 6HR MAX TEMP:  20;

HEBRON         CLOUDY    22   5  49 SE12      30.43F WCI  10
KEARNEY *      CLOUDY    21  12  68 S16       30.32F WCI   7
YORK           CLOUDY    19   7  58 SE15      30.41F WCI   5
$$

NEZ011>018-030>034-042>045-131900-
NORTHEAST NEBRASKA

CITY           SKY/WX    TMP DP  RH WIND       PRES   REMARKS
NORFOLK        CLOUDY    15   6  67 SE17      30.39F WCI  -1
6HR MIN TEMP:  11; 6HR MAX TEMP:  15;

BLAIR          CLOUDY    14   6  69 E9        30.49F WCI   2
COLUMBUS *     CLOUDY    16   0  48 SE13      30.43F WCI   2
FREMONT        CLOUDY    15   4  62 SE9       30.48F WCI   3
TEKAMAH        CLOUDY    11   3  70 SE13      30.53F WCI  -4
6HR MIN TEMP:   8; 6HR MAX TEMP:  11;

$$

NEZ050>053-065>068-078-088>093-131900-
SOUTHEAST NEBRASKA

CITY           SKY/WX    TMP DP  RH WIND       PRES   REMARKS
LINCOLN        CLOUDY    18   5  57 SE10      30.49F WCI   6
6HR MIN TEMP:  15; 6HR MAX TEMP:  18;

OMAHA EPPLEY   CLOUDY    14   3  61 SE9       30.54F WCI   2
6HR MIN TEMP:   9; 6HR MAX TEMP:  15;

BEATRICE       CLOUDY    19   4  51 SE9       30.46F WCI   9
FALLS CITY     CLOUDY    18   2  49 SE10      30.53F WCI   6
6HR MIN TEMP:  15; 6HR MAX TEMP:  19;

NEBRASKA CITY  CLOUDY    17   3  56 SE7       30.51F WCI   7
PLATTSMOUTH    CLOUDY    16   4  60 SE9       30.51F WCI   4
$$

NEZ044-045-051>053-067-131900-
OMAHA AREA

CITY           SKY/WX    TMP DP  RH WIND       PRES   REMARKS
OMAHA EPPLEY   CLOUDY    14   3  61 SE9       30.54F WCI   2
6HR MIN TEMP:   9; 6HR MAX TEMP:  15;

BLAIR          CLOUDY    14   6  69 E9        30.49F WCI   2
FREMONT        CLOUDY    15   4  62 SE9       30.48F WCI   3
OFFUTT AFB     CLOUDY    15   2  55 SE12      30.52F WCI   2
PLATTSMOUTH    CLOUDY    16   4  60 SE9       30.51F WCI   4
WAHOO          CLOUDY    16   6  64 SE12      30.49F WCI   2
$$




USA.gov is the U.S. government's official web portal to all federal, state and local government web resources and services.